{"data":{"norad_id":44424,"intl_designator":"2019-039D","name":"COSMOS 2538","alt_names":[],"object_type":"PAYLOAD","status":"ACTIVE","operator":null,"country":"CIS","launch_date":"2019-07-10","launch_site_code":"PLMSC","launch_vehicle":null,"mission":null,"orbit_class":"UNKNOWN","rcs_meters":null,"size_class":null,"mass_kg":null,"dimensions":null,"purposes":[],"wikipedia_slug":null,"has_3d_model":false,"image_url":null,"decayed_at":null,"tle_current":{"epoch":"2026-05-25T04:56:59.039232Z","epoch_age_seconds":51175,"freshness":"FRESH","line1":"1 44424U 19039D   26145.20623888  .00005807  00000+0  26290-3 0  9996","line2":"2 44424  97.5879 224.4476 0043786 123.8694 236.6719 15.20418795376412","mean_motion":15.20418795,"eccentricity":0.0043786,"inclination_deg":97.5879,"raan_deg":224.4476,"arg_perigee_deg":123.8694,"mean_anomaly_deg":236.6719,"bstar":0.0002629,"rev_number":37641,"period_min":94.710747113594,"perigee_km":474.43979202478,"apogee_km":534.71309017116,"semimajor_km":6882.713441098,"source":"CELESTRAK","updated_at":"2026-05-25T13:37:55.972851Z"}}}